Location: Fort Wayne
(41.1310°N, 85.1290°W)
Time: 04:32:17
(UTC-04:00)

Gbstr 26 Del rocket - Visible Passes

Search period start: 28 September 2016 00:00
Search period end: 08 October 2016 00:00
Orbit: 494 x 1267 km, 51.8° (Epoch: 26 September)

Date Brightness Start Highest point End Pass type
(mag) Time Alt. Az. Time Alt. Az. Time Alt. Az.
28 Sep 5.5 04:00:41 34° ESE 04:00:41 34° ESE 04:04:53 10° ESE visible
28 Sep 4.9 05:43:22 35° WSW 05:44:10 36° SW 05:51:20 10° SSE visible
28 Sep 4.0 20:37:16 10° S 20:41:09 31° SE 20:42:57 24° E visible
28 Sep 5.0 22:23:10 10° WSW 22:25:35 30° W 22:25:35 30° W visible
29 Sep 6.1 03:58:25 21° SE 03:58:25 21° SE 04:00:46 10° SE visible
29 Sep 5.3 05:41:07 29° SW 05:41:07 29° SW 05:46:35 10° S visible
29 Sep 3.7 20:32:48 10° SSW 20:36:53 40° SE 20:39:49 21° ENE visible
29 Sep 4.7 22:19:12 10° W 22:22:26 38° WNW 22:22:26 38° WNW visible
30 Sep 6.6 03:56:13 11° SE 03:56:13 11° SE 03:56:34 10° SE visible
30 Sep 5.9 05:38:56 18° SSW 05:38:56 18° SSW 05:41:41 10° S visible
30 Sep 3.4 20:28:26 10° SSW 20:32:37 51° SE 20:36:27 17° ENE visible
30 Sep 4.6 22:15:16 10° W 22:19:04 39° NW 22:19:04 39° NW visible
01 Oct 3.2 20:24:10 10° SW 20:28:25 66° SE 20:32:55 14° ENE visible
01 Oct 4.7 22:11:22 10° W 22:15:31 37° NNW 22:15:31 37° NNW visible
02 Oct 3.1 20:19:58 10° SW 20:24:15 83° SE 20:29:14 11° NE visible
02 Oct 4.8 22:07:28 10° W 22:11:49 33° NNW 22:11:49 33° NNW visible
03 Oct 3.3 20:15:51 10° WSW 20:20:07 79° NW 20:25:23 10° NE visible
03 Oct 4.9 22:03:35 10° WNW 22:07:54 31° N 22:08:00 30° N visible
04 Oct 3.5 20:11:47 10° WSW 20:16:01 64° NNW 20:21:13 10° NE visible
04 Oct 5.0 21:59:42 10° WNW 22:03:57 29° N 22:04:06 28° N visible
05 Oct 3.8 20:07:46 10° WSW 20:11:56 52° NNW 20:17:02 10° NE visible
05 Oct 5.1 21:55:49 10° WNW 22:00:00 27° N 22:00:07 27° N visible
06 Oct 4.1 20:03:48 10° W 20:07:54 44° NNW 20:12:51 10° NE visible
06 Oct 5.1 21:51:54 10° WNW 21:56:02 26° N 21:56:06 26° N visible
07 Oct 4.3 19:59:53 10° W 20:03:53 37° NNW 20:08:40 10° NE visible
07 Oct 5.1 21:47:58 10° NW 21:52:02 26° N 21:52:02 26° N visible
